Location: Unspecified
(0.0000°N, 0.0000°E)
Time: 19:19:32
(UTC+00:00)

Cosmos 2211 Rocket - Visible Passes

Search period start: 06 December 2025 00:00
Search period end: 16 December 2025 00:00
Orbit: 1409 x 1479 km, 82.6° (Epoch: 06 December)

Date Brightness Start Highest point End Pass type
(mag) Time Alt. Az. Time Alt. Az. Time Alt. Az.
06 Dec 7.2 21:53:59 18° SSW 21:53:59 18° SSW 21:55:45 10° S visible
07 Dec 6.9 20:51:06 19° SSE 20:51:06 19° SSE 20:53:09 10° SSE visible
08 Dec 6.9 21:42:56 23° SSW 21:42:56 23° SSW 21:45:49 10° SSW visible
09 Dec 6.5 20:39:56 27° SSE 20:39:56 27° SSE 20:43:20 10° SSE visible
09 Dec 7.6 22:34:41 11° SW 22:34:41 11° SW 22:34:57 10° SW visible
10 Dec 6.9 19:36:52 13° ESE 19:36:52 13° ESE 19:38:02 10° SE visible
10 Dec 6.6 21:31:36 31° SSW 21:31:36 31° SSW 21:35:53 10° SSW visible
11 Dec 5.9 20:28:27 40° SSE 20:28:27 40° SSE 20:33:32 10° SSE visible
11 Dec 7.5 22:23:11 12° WSW 22:23:11 12° WSW 22:24:40 10° WSW visible
12 Dec 6.6 19:25:13 18° ESE 19:25:13 18° ESE 19:28:27 10° SE visible
12 Dec 6.2 21:19:56 41° SW 21:19:56 41° SW 21:25:57 10° SSW visible
13 Dec 5.3 20:16:34 60° ESE 20:16:34 60° ESE 20:23:43 10° SSE visible
13 Dec 7.5 22:11:16 13° W 22:11:16 13° W 22:14:18 10° WSW visible
14 Dec 6.2 19:13:02 22° E 19:13:02 22° E 19:18:51 10° SE visible
14 Dec 6.0 21:07:43 44° W 21:08:10 44° W 21:16:00 10° SSW visible
15 Dec 5.1 20:03:56 57° NE 20:05:36 68° E 20:13:54 10° SSE visible
15 Dec 7.5 21:58:36 11° WNW 22:00:55 12° W 22:03:50 10° WSW visible
